Location: St. Louis
(38.6270°N, 90.1994°W)
Time: 20:22:31
(UTC-06:00)

Vanguard 3 - Pass Details

Date: 02 December 2021
Orbit: 508 x 3260 km, 33.3° (Epoch: 19 January)

Event Time Altitude Azimuth Distance (km) Brightness Sun altitude
Exits shadow 04:50:35 17° 242° (WSW) 5,591 10.9 -24.9°
Maximum altitude 05:07:16 67° 167° (SSE) 3,072 10.0 -21.7°
Drops below altitude 10° 05:21:21 10° 89° (E) 4,623 12.1 -19.0°
Sets 05:24:20 0° 87° (E) 5,317 12.7 -18.4°
